Regional Weather Roundup
Issued by NWS Northern Indiana

Home | Current Version | Previous Version | Graphics & Text | Print | Product List | Glossary On
Versions: 1 2 3 4 5 6 7 8 9 10 11 12 13 14 15 16 17 18 19 20 21 22 23 24 25 26 27 28 29 30 31 32 33 34 35 36 37 38 39 40 41 42 43 44 45 46 47 48 49 50
000
ASUS43 KIWX 301310
RWRIWX

KIWX WEATHER ROUNDUP
NATIONAL WEATHER SERVICE NORTHERN INDIANA
900 AM EDT SAT MAY 30 2015

NOTE: "FAIR" INDICATES FEW OR NO CLOUDS BELOW 12,000 FEET WITH NO
SIGNIFICANT WEATHER AND/OR OBSTRUCTIONS TO VISIBILITY.

* THESE STATIONS ARE NOT UNDER NWS QUALITY CONTROL. THEY ALSO MAY NOT
  REPORT WEATHER SUCH AS PRECIPITATION OR FOG.

INZ001>027-301400-
NORTHERN INDIANA

CITY           SKY/WX    TMP DP  RH WIND       PRES   REMARKS
GARY*          CLOUDY    70  70 100 CALM      29.99R
VALPARAISO     CLOUDY    69  67  93 S5        30.01R
MICHIGAN CITY* CLOUDY    68  68 100 SW5       30.01R
LAPORTE*       CLOUDY    71  71 100 W5        30.01R
KNOX*          CLOUDY    70  70 100 SW7       30.00R
SOUTH BEND     CLOUDY    70  67  90 SW7       30.00S
ELKHART*       PTSUNNY   70  68  94 SW5       30.00F
GOSHEN         PTSUNNY   72  66  81 SW8       30.01S
MONTICELLO*    HVY RAIN  69  67  95 SW6       30.01R
LOGANSPORT*    PTSUNNY   70  64  83 SW6       30.03R
ROCHESTER*     PTSUNNY   73  66  78 SW6       30.02S
WARSAW*        PTSUNNY   72  64  78 W10       30.02R
ANGOLA*        PTSUNNY   73  66  78 W9        30.01S
FORT WAYNE     PTSUNNY   73  67  81 SW13      30.03S
HUNTINGTON*    PTSUNNY   72  67  84 SW6       30.03R
PERU/GRISSOM   PTSUNNY   73  66  78 W6        30.01S
MARION*        CLOUDY    70  65  85 SW7       30.04S

$$
INZ028>050-301400-
CENTRAL INDIANA

CITY           SKY/WX    TMP DP  RH WIND       PRES   REMARKS
LAFAYETTE      LGT RAIN  67  67 100 CALM      30.01R FOG
KOKOMO*        PTSUNNY   73  66  78 SW7       30.02F
MUNCIE*        PTSUNNY   74  67  78 SW7       30.04S
INDIANAPOLIS   MOSUNNY   74  67  78 S9        30.02R

$$
MIZ043>046-050>051-056>058-064>065-071>073-077>080-301400-
SOUTHWEST LOWER MICHIGAN

CITY           SKY/WX    TMP DP  RH WIND       PRES   REMARKS
BATTLE CREEK   RAIN      68  66  93 SW9       30.01R FOG
BENTON HARBOR  LGT RAIN  67  66  97 SW7       29.99R FOG
COLDWATER*     CLOUDY    71  64  80 W13       30.01R
HILLSDALE*     MOSUNNY   74  68  82 SW10      30.02R
HOLLAND        CLOUDY    62  60  93 S5        29.99R
GRAND RAPIDS   LGT RAIN  69  65  86 SW9       29.98R
KALAMAZOO      LGT RAIN  69  66  90 SW6       30.00S
STURGIS*       CLOUDY    70  66  88 SW3       30.01R
THREE RIVERS*  CLOUDY    68  67  94 CALM      30.00F

$$
OHZ001>008-015>018-024>025-301400-
NORTHWEST OHIO

CITY           SKY/WX    TMP DP  RH WIND       PRES   REMARKS
WAUSEON*       PTSUNNY   73  70  88 SW12      30.02R
DEFIANCE       PTSUNNY   73  66  78 SW9       30.02S
FINDLAY        SUNNY     75  68  78 SW13      30.03S
TOLEDO EXPRESS SUNNY     74  66  76 SW13      30.01S
TOLEDO METCALF SUNNY     75  66  73 SW14      30.02S
LIMA           SUNNY     73  67  81 SW8       30.05S

$$
AND FOR LAKE MICHIGAN COASTAL AND OPEN LAKE BUOY OBSERVATIONS

STATION/POSITION TEMP    WIND        PRES    VSBY  WAVE
                 AIR SEA DIR/SP/G                  HT/PER
                 (F)     (DEG/KT/KT) (MB)    (MI)  (FT/S)
CALUMET HARBOR    70     230/  2/  4   N/A
MICHIGAN CITY     67     200/  6/  7   N/A
BURNS HARBOR      68     230/  5/  7 1016.3S
SAINT JOSEPH      66     180/  8/  9 1015.9R
SOUTH LAKE BUOY   46 38  310/  4/  6 1015.9R         1
4 MI NW BRIDGMAN  62 57  240/  6/  6   N/A           1
MICHIGAN CITY     62 56  210/  4/  6   N/A           1

$$
&&


USA.gov is the U.S. government's official web portal to all federal, state and local government web resources and services.